Weather reports worldwide

Advertisment
Wilkes-Barre/Scrant PA, United States of America (72513): temperature & dewpoint: 18.05.2018 07:00:00 - 24.05.2018 07:00:00 (EDT)Wilkes-Barre/Scrant PA, United States of America (72513): wind speed: 18.05.2018 07:00:00 - 24.05.2018 07:00:00 (EDT)Wilkes-Barre/Scrant PA, United States of America (72513): wind direction: 18.05.2018 07:00:00 - 24.05.2018 07:00:00 (EDT)Wilkes-Barre/Scrant PA, United States of America (72513): reduced air pressure: 18.05.2018 07:00:00 - 24.05.2018 07:00:00 (EDT)Wilkes-Barre/Scrant PA, United States of America (72513): visibility: 18.05.2018 07:00:00 - 24.05.2018 07:00:00 (EDT)Wilkes-Barre/Scrant PA, United States of America (72513): precipitation: 18.05.2018 07:00:00 - 24.05.2018 07:00:00 (EDT)
Date & Time tt [°C] td [°C] ff [km/h] ff [kn] dd ppp [hPa] vv [km] rr [mm]
24.05.2018 07:00:00 12,2 11,1 0 0 N 1022,0 16 -
24.05.2018 06:00:00 12,2 10,0 0 0 N 1021,0 16 -
24.05.2018 05:00:00 11,1 10,0 0 0 N 1020,1 16 0,0
24.05.2018 04:00:00 11,7 10,6 0 0 N 1019,4 16 -
24.05.2018 03:00:00 12,2 10,6 0 0 N 1019,1 16 -
24.05.2018 02:00:00 12,2 11,1 0 0 N 1018,9 16 0,0
24.05.2018 01:00:00 12,2 11,7 0 0 N 1018,8 16 -
24.05.2018 00:00:00 12,8 11,7 5 3 SSE 1018,3 16 -
23.05.2018 23:00:00 13,9 12,8 0 0 N 1018,1 16 0,0
23.05.2018 22:00:00 15,6 12,8 8 4 ESE 1017,5 16 -
23.05.2018 21:00:00 17,2 12,2 0 0 N 1016,6 16 -
23.05.2018 20:00:00 23,3 10,0 8 4 W 1016,0 16 0,0
23.05.2018 19:00:00 24,4 11,7 11 6 WNW 1015,8 16 -
23.05.2018 18:00:00 25,0 10,0 16 9 NNW 1015,5 16 -
23.05.2018 17:00:00 25,0 10,0 15 8 NW 1015,5 16 0,0
23.05.2018 16:00:00 23,9 12,8 21 11 N 1015,9 16 -
23.05.2018 15:00:00 22,8 13,3 15 8 NNE 1016,4 16 -
23.05.2018 14:00:00 22,2 13,3 8 4 N 1016,3 16 0,0
23.05.2018 13:00:00 20,6 12,8 15 8 NW 1016,6 16 -
23.05.2018 12:00:00 18,9 13,3 16 9 NW 1016,7 16 -
23.05.2018 11:00:00 16,7 12,8 11 6 NNE 1016,9 16 0,0
23.05.2018 10:00:00 16,7 14,4 26 14 NNW 1015,9 16 -
23.05.2018 09:00:00 16,7 15,6 16 9 NW 1015,0 16 -
23.05.2018 08:00:00 16,1 16,1 0 0 N 1014,6 4,8 0,0
23.05.2018 07:00:00 15,6 15,6 0 0 N 1014,3 0,4 0,0
23.05.2018 06:00:00 15,0 15,0 9 5 N 1013,0 0,4 1,3
23.05.2018 05:00:00 15,6 15,6 0 0 N 1012,6 6 1,0
23.05.2018 04:00:00 15,0 15,0 0 0 N 1012,3 8 0,0
23.05.2018 03:00:00 15,0 15,0 8 4 NE 1012,4 11 0,3
23.05.2018 02:00:00 15,0 15,0 5 3 E 1013,1 11 0,3
23.05.2018 01:00:00 15,6 15,0 0 0 N 1013,2 8 4,8
23.05.2018 00:00:00 15,0 15,0 0 0 N 1013,9 6 0,3
22.05.2018 23:00:00 15,0 14,4 0 0 N 1013,8 11 0,3
22.05.2018 22:00:00 15,6 14,4 8 4 SSW 1014,2 16 -
22.05.2018 21:00:00 15,6 13,9 8 4 SSW 1014,4 16 -
22.05.2018 20:00:00 15,6 13,9 0 0 N 1014,8 15 -
22.05.2018 19:00:00 15,6 13,9 0 0 N 1014,7 16 -
22.05.2018 18:00:00 16,7 13,9 0 0 N 1015,4 16 -
22.05.2018 17:00:00 16,7 14,4 0 0 N 1015,5 16 -
22.05.2018 16:00:00 14,4 13,3 0 0 N 1016,7 15 0,0
22.05.2018 15:00:00 14,4 12,2 5 3 - 1017,5 10 0,0
22.05.2018 14:00:00 14,4 11,1 0 0 N 1018,5 16 0,8
22.05.2018 13:00:00 14,4 13,3 5 3 SSW 1019,1 4,8 3,0
22.05.2018 12:00:00 16,1 14,4 8 4 - 1019,1 8 2,0
22.05.2018 11:00:00 16,1 15,6 9 5 - 1018,3 4,0 0,3
22.05.2018 10:00:00 15,6 15,0 11 6 NNE 1018,8 6 0,8
22.05.2018 09:00:00 15,0 14,4 11 6 ENE 1019,5 6 2,8
22.05.2018 08:00:00 14,4 13,9 9 5 ENE 1019,4 4,8 1,5
22.05.2018 07:00:00 13,3 13,3 8 4 ENE 1020,2 3,2 4,6
22.05.2018 06:00:00 13,9 13,3 0 0 N 1019,9 8 2,5
22.05.2018 05:00:00 15,6 11,1 9 5 ENE 1018,5 16 -
22.05.2018 04:00:00 15,0 11,1 9 5 E 1019,0 16 0,0
22.05.2018 03:00:00 15,0 10,6 5 3 ESE 1019,7 16 -
22.05.2018 02:00:00 15,0 10,0 5 3 - 1020,2 16 0,0
22.05.2018 01:00:00 14,4 9,4 5 3 E 1020,4 16 -
22.05.2018 00:00:00 15,0 8,9 11 6 ESE 1020,6 16 -
21.05.2018 23:00:00 15,6 8,3 13 7 E 1020,7 16 0,0
21.05.2018 22:00:00 16,7 8,3 13 7 E 1020,5 16 -
21.05.2018 21:00:00 17,8 8,9 11 6 ESE 1020,3 16 -
21.05.2018 20:00:00 20,0 10,0 5 3 E 1020,2 16 0,0
21.05.2018 19:00:00 23,9 7,2 8 4 NW 1020,1 16 -
21.05.2018 18:00:00 24,4 7,8 8 4 - 1019,9 16 -
21.05.2018 17:00:00 24,4 6,7 0 0 N 1020,2 16 0,0
21.05.2018 16:00:00 24,4 7,2 - - - 1020,5 16 -
21.05.2018 15:00:00 23,3 6,7 0 0 N 1021,3 16 -
21.05.2018 14:00:00 22,2 9,4 5 3 - 1021,9 16 0,0
21.05.2018 13:00:00 21,7 9,4 9 5 NNW 1022,7 16 -
21.05.2018 12:00:00 20,6 8,9 0 0 N 1023,2 16 -
21.05.2018 11:00:00 17,8 10,0 8 4 W 1023,9 16 0,0
21.05.2018 10:00:00 16,7 11,1 8 4 - 1023,9 16 -
21.05.2018 09:00:00 15,6 11,1 0 0 N 1023,6 16 -
21.05.2018 08:00:00 13,3 12,2 0 0 N 1023,3 15 0,0
21.05.2018 07:00:00 12,2 12,2 0 0 N 1022,8 0,8 -
21.05.2018 06:00:00 11,7 11,7 0 0 N 1022,3 0,4 -
21.05.2018 05:00:00 10,6 10,6 0 0 N 1021,3 0,8 0,0
21.05.2018 04:00:00 12,2 11,7 0 0 N 1020,7 15 -
21.05.2018 03:00:00 10,6 10,6 0 0 N 1019,9 13 -
21.05.2018 02:00:00 11,1 11,1 0 0 N 1019,9 16 0,0
21.05.2018 01:00:00 12,2 11,7 0 0 N 1020,0 16 -
21.05.2018 00:00:00 12,2 12,2 0 0 N 1019,8 15 -
20.05.2018 23:00:00 13,3 12,8 5 3 SE 1019,4 16 0,0
20.05.2018 22:00:00 15,6 13,3 8 4 N 1018,9 16 -
20.05.2018 21:00:00 17,2 13,3 13 7 NNW 1018,9 16 -
20.05.2018 20:00:00 18,9 13,9 13 7 NNW 1018,0 16 -
20.05.2018 19:00:00 20,0 14,4 11 6 N 1017,5 16 -
20.05.2018 18:00:00 20,0 14,4 22 12 NNW 1017,2 16 -
20.05.2018 17:00:00 19,4 15,0 13 7 N 1016,8 16 0,0
20.05.2018 16:00:00 19,4 16,7 13 7 N 1016,2 15 0,0
20.05.2018 15:00:00 21,7 17,2 5 3 - 1015,4 16 0,5
20.05.2018 14:00:00 20,6 17,8 13 7 WNW 1015,5 13 0,0
20.05.2018 13:00:00 20,6 17,2 15 8 WSW 1014,7 15 -
20.05.2018 12:00:00 20,6 17,2 18 10 SW 1014,8 15 -
20.05.2018 11:00:00 18,9 17,2 18 10 SW 1014,7 13 -
20.05.2018 10:00:00 17,8 17,2 18 10 SW 1014,6 15 0,0
20.05.2018 09:00:00 17,2 17,2 13 7 SW 1015,0 10 0,3
20.05.2018 08:00:00 16,7 16,7 13 7 SW 1014,7 8 0,0
20.05.2018 07:00:00 16,1 16,1 8 4 SSW 1014,7 0,8 -
20.05.2018 06:00:00 16,1 16,1 8 4 WSW 1014,0 11 -
20.05.2018 05:00:00 16,7 16,7 8 4 SW 1013,8 10 -
20.05.2018 04:00:00 16,7 16,7 8 4 WSW 1014,0 16 0,0
20.05.2018 03:00:00 16,1 15,6 0 0 N 1014,2 15 0,0
20.05.2018 02:00:00 16,1 15,6 0 0 N 1014,5 16 -
20.05.2018 01:00:00 17,2 15,6 11 6 SW 1015,2 16 -
20.05.2018 00:00:00 17,2 15,6 11 6 SSW 1015,9 16 0,0
19.05.2018 23:00:00 15,6 14,4 11 6 SSW 1016,7 16 -
19.05.2018 22:00:00 15,6 14,4 9 5 SW 1017,2 16 0,0
19.05.2018 21:00:00 15,0 14,4 8 4 - 1017,4 10 0,0
19.05.2018 20:00:00 15,0 13,9 5 3 WNW 1017,6 16 0,0
19.05.2018 19:00:00 15,6 13,9 0 0 N 1017,9 16 -
19.05.2018 18:00:00 15,0 13,3 0 0 N 1018,6 16 -
19.05.2018 17:00:00 15,0 13,3 0 0 N 1019,1 16 0,0
19.05.2018 16:00:00 13,9 12,8 5 3 - 1019,7 16 -
19.05.2018 15:00:00 13,3 12,2 5 3 ENE 1020,5 16 -
19.05.2018 14:00:00 13,3 11,7 0 0 N 1021,1 16 0,5
19.05.2018 13:00:00 12,2 11,1 0 0 N 1021,9 6 2,5
19.05.2018 12:00:00 11,7 10,6 8 4 ENE 1021,8 8 3,0
19.05.2018 11:00:00 11,7 10,0 13 7 ESE 1022,1 6 3,6
19.05.2018 10:00:00 11,1 10,0 11 6 ENE 1022,0 2,8 0,8
19.05.2018 09:00:00 10,6 10,0 15 8 N 1022,5 4,8 2,0
19.05.2018 08:00:00 9,4 8,3 16 9 NE 1023,1 4,8 2,0
19.05.2018 07:00:00 8,9 7,8 15 8 ENE 1023,6 6 2,3
19.05.2018 06:00:00 8,9 7,8 13 7 ENE 1023,7 8 1,5
19.05.2018 05:00:00 9,4 7,2 15 8 ENE 1023,7 11 0,5
19.05.2018 04:00:00 10,0 6,7 13 7 E 1024,2 10 0,3
19.05.2018 03:00:00 12,2 4,4 16 9 ENE 1024,5 16 0,0
19.05.2018 02:00:00 13,3 2,2 5 3 - 1025,0 16 0,0
19.05.2018 01:00:00 13,3 1,1 9 5 - 1025,6 16 -
19.05.2018 00:00:00 13,3 3,9 5 3 SE 1026,2 16 -
18.05.2018 23:00:00 13,9 6,1 8 4 - 1025,9 16 0,0
18.05.2018 22:00:00 14,4 6,7 - - - 1026,0 16 -
18.05.2018 21:00:00 15,6 7,8 13 7 SE 1025,7 16 -
18.05.2018 20:00:00 17,2 8,3 13 7 SSE 1024,7 16 0,0
18.05.2018 19:00:00 18,9 10,0 15 8 SE 1024,2 16 -
18.05.2018 18:00:00 21,1 10,6 5 3 - 1023,5 16 -
18.05.2018 17:00:00 21,7 10,0 11 6 - 1023,0 16 0,0
18.05.2018 16:00:00 23,3 9,4 16 9 ESE 1023,0 16 -
18.05.2018 15:00:00 23,3 8,9 - - - 1023,3 16 -
18.05.2018 14:00:00 23,3 8,9 15 8 ENE 1023,8 16 0,0
18.05.2018 13:00:00 21,7 8,3 8 4 - 1024,1 16 -
18.05.2018 12:00:00 21,1 8,9 13 7 E 1024,2 16 -
18.05.2018 11:00:00 20,6 9,4 15 8 ENE 1024,0 16 0,0
18.05.2018 10:00:00 18,9 8,9 16 9 ENE 1023,9 16 -
18.05.2018 09:00:00 17,2 10,6 21 11 ENE 1023,8 16 -
18.05.2018 08:00:00 16,7 13,9 8 4 ENE 1022,9 15 0,0
18.05.2018 07:00:00 16,1 12,8 8 4 ENE 1021,9 15 -

tt = temperature
td = dewpoint
ff = wind speed
dd = wind direction
ppp = reduced air pressure
vv = visibility
rr = precipitation

Next stations